Date String (YYYY-MM-DD hh:mm:ss) UTC,Instrument flags,Ambient pressure (hPa),Sample flow (lpm),Bypass flow (lpm),Sample temperature (°C),Ambient temperature (°C),ASC tube jacket temperature (°C),LED temperature (°C),Box temperature (°C),Sample RH (%),Span deviation,Mass concentration (μg/m³),Mass concentration (μg/m³),Mass concentration (μg/m³)
DateTimeUTC,F1_M11,P_M11,Q1_M11,Q2_M11,T1_M11,T2_M11,T3_M11,T4_M11,T5_M11,U1_M11,ZSPAN_M11,X0_M11,X2_M11,X1_M11
2022-09-12 18:00:00,,0828.7,5.01,0.00,30.0,27.8,00.0,38.7,31.7,10.4,0004.2,0014.67,0008.79,0008.38
2022-09-12 18:01:00,,0828.7,5.00,0.00,30.0,28.1,00.0,38.6,31.7,09.8,0004.5,0014.63,0008.74,0008.35
2022-09-12 18:02:00,,0828.8,5.01,0.00,30.0,28.3,00.0,38.6,31.7,09.8,0004.5,0013.58,0008.70,0008.32
2022-09-12 18:03:00,,0828.7,5.00,0.00,30.0,28.4,00.0,38.6,31.8,09.7,0004.4,0013.22,0008.69,0008.30
2022-09-12 18:04:00,,0828.8,4.98,0.00,30.0,28.6,00.0,38.7,31.9,10.0,0004.6,0013.27,0008.70,0008.28
2022-09-12 18:05:00,,0829.1,5.00,0.00,30.1,28.8,00.0,38.7,31.9,10.2,0004.2,0013.36,0008.70,0008.28
2022-09-12 18:06:00,,0829.2,5.00,0.00,30.1,28.8,00.0,38.7,32.0,09.9,0003.7,0013.64,0008.68,0008.28
2022-09-12 18:07:00,,0829.1,4.98,0.00,30.1,28.0,00.0,38.7,32.0,10.3,0002.3,0013.63,0008.67,0008.26
2022-09-12 18:08:00,,0828.9,5.01,0.00,30.1,26.8,00.0,38.7,31.8,09.2,0001.3,0013.61,0008.65,0008.23
2022-09-12 18:09:00,,0828.6,4.99,0.00,30.0,26.9,00.0,38.6,31.8,08.9,0002.0,0013.66,0008.65,0008.22
2022-09-12 18:10:00,,0828.8,5.00,0.00,30.0,27.2,00.0,38.6,31.7,09.1,0001.9,0013.81,0008.70,0008.23
2022-09-12 18:11:00,,0828.7,4.99,0.00,29.9,27.5,00.0,38.6,31.6,10.0,0002.1,0012.94,0008.67,0008.21
2022-09-12 18:12:00,,0828.8,5.01,0.00,29.9,27.7,00.0,38.6,31.6,09.6,0001.5,0012.71,0008.70,0008.23
2022-09-12 18:13:00,,0828.9,5.00,0.00,29.9,28.0,00.0,38.6,31.7,10.6,0002.0,0012.68,0008.72,0008.23
2022-09-12 18:14:00,,0828.6,5.01,0.00,29.9,28.2,00.0,38.6,31.7,10.0,0001.2,0012.75,0008.71,0008.21
2022-09-12 18:15:00,,0828.9,5.01,0.00,29.9,28.4,00.0,38.6,31.8,10.1,0000.5,0013.53,0008.67,0008.19
2022-09-12 18:16:00,,0828.9,4.98,0.00,30.0,28.6,00.0,38.6,31.8,10.4,0000.2,0013.32,0008.65,0008.19
2022-09-12 18:17:00,,0829.1,5.00,0.00,30.0,28.7,00.0,38.6,31.9,10.3,-000.2,0012.97,0008.63,0008.18
2022-09-12 18:18:00,,0828.8,5.00,0.00,30.0,28.7,00.0,38.6,31.9,10.3,0000.3,0012.85,0008.60,0008.16
2022-09-12 18:19:00,,0829.0,5.01,0.00,30.0,27.6,00.0,38.6,31.9,10.1,0000.9,0012.76,0008.54,0008.13
2022-09-12 18:20:00,,0829.1,4.99,0.00,30.0,26.7,00.0,38.6,31.8,08.4,0000.2,0012.72,0008.50,0008.11
2022-09-12 18:21:00,,0829.1,5.00,0.00,30.0,26.9,00.0,38.5,31.7,09.1,0000.6,0012.51,0008.46,0008.10
2022-09-12 18:22:00,,0828.6,4.99,0.00,29.9,27.2,00.0,38.5,31.6,09.5,0002.1,0012.46,0008.44,0008.08
2022-09-12 18:23:00,,0829.0,5.01,0.00,29.9,27.5,00.0,38.5,31.6,10.1,0002.4,0012.37,0008.37,0008.02
2022-09-12 18:24:00,,0828.5,5.00,0.00,29.9,27.8,00.0,38.5,31.6,08.9,0002.0,0012.37,0008.33,0008.01
2022-09-12 18:25:00,,0828.4,5.00,0.00,29.9,28.0,00.0,38.5,31.7,09.2,0002.7,0012.29,0008.34,0008.02
2022-09-12 18:26:00,,0828.5,5.01,0.00,29.9,28.3,00.0,38.5,31.7,09.8,0003.2,0011.46,0008.35,0008.00
2022-09-12 18:27:00,,0828.5,5.01,0.00,29.9,28.4,00.0,38.5,31.8,09.9,0003.7,0011.29,0008.33,0007.96
2022-09-12 18:28:00,,0828.5,4.98,0.00,29.9,28.6,00.0,38.5,31.8,09.7,0003.7,0011.43,0008.34,0007.93
2022-09-12 18:29:00,,0828.4,5.01,0.00,30.0,28.7,00.0,38.6,31.9,09.2,0003.5,0011.39,0008.30,0007.91
2022-09-12 18:30:00,,0828.5,4.99,0.00,30.0,28.5,00.0,38.6,31.9,08.1,0002.9,0011.39,0008.28,0007.89
2022-09-12 18:31:00,,0828.4,5.00,0.00,30.0,27.2,00.0,38.6,31.8,09.0,0002.7,0011.36,0008.23,0007.83
2022-09-12 18:32:00,,0828.4,4.99,0.00,29.9,26.8,00.0,38.5,31.8,10.0,0002.6,0011.35,0008.20,0007.77
2022-09-12 18:33:00,,0828.4,5.01,0.00,29.9,27.0,00.0,38.5,31.7,09.6,0001.6,0011.66,0008.17,0007.72
2022-09-12 18:34:00,,0828.4,5.00,0.00,29.8,27.3,00.0,38.5,31.5,09.5,0001.3,0012.05,0008.17,0007.71
2022-09-12 18:35:00,,0828.4,5.00,0.00,29.8,27.6,00.0,38.5,31.5,08.8,0002.0,0012.03,0008.12,0007.66
2022-09-12 18:36:00,,0828.4,5.00,0.00,29.8,27.9,00.0,38.5,31.6,08.8,0001.4,0011.88,0008.04,0007.60
2022-09-12 18:37:00,,0828.4,5.00,0.00,29.8,28.1,00.0,38.5,31.6,08.6,0001.4,0011.76,0007.98,0007.57
2022-09-12 18:38:00,,0828.3,5.00,0.00,29.8,28.3,00.0,38.5,31.7,08.1,0001.1,0011.73,0007.95,0007.56
2022-09-12 18:39:00,,0828.3,5.00,0.00,29.9,28.5,00.0,38.5,31.7,07.9,0001.2,0011.66,0007.91,0007.54
2022-09-12 18:40:00,,0828.3,4.99,0.00,29.9,28.6,00.0,38.5,31.8,08.6,0000.9,0011.68,0007.89,0007.53
2022-09-12 18:41:00,,0828.4,5.00,0.00,29.9,28.7,00.0,38.5,31.8,08.5,0001.5,0011.73,0007.89,0007.52
2022-09-12 18:42:00,,0828.3,4.99,0.00,30.0,28.2,00.0,38.5,31.9,09.0,0001.0,0011.76,0007.89,0007.53
2022-09-12 18:43:00,,0828.3,5.01,0.00,29.9,26.9,00.0,38.5,31.7,08.8,0001.1,0012.45,0007.89,0007.53
2022-09-12 18:44:00,,0828.3,4.99,0.00,29.9,26.8,00.0,38.5,31.7,08.1,0001.4,0012.18,0007.87,0007.55
2022-09-12 18:45:00,,0828.3,5.00,0.00,29.8,27.1,00.0,38.4,31.6,08.0,0002.0,0012.31,0007.87,0007.56
2022-09-12 18:46:00,,0828.3,5.01,0.00,29.8,27.3,00.0,38.4,31.5,09.0,0001.8,0012.45,0007.89,0007.58
2022-09-12 18:47:00,,0828.3,5.00,0.00,29.8,27.6,00.0,38.4,31.5,08.6,0001.4,0012.56,0007.95,0007.61
2022-09-12 18:48:00,,0828.3,5.01,0.00,29.8,27.9,00.0,38.4,31.5,09.2,0001.1,0012.70,0007.97,0007.62
2022-09-12 18:49:00,,0828.3,5.00,0.00,29.8,28.1,00.0,38.4,31.6,09.6,0001.0,0012.79,0007.97,0007.63
2022-09-12 18:50:00,,0828.3,5.01,0.00,29.8,28.3,00.0,38.4,31.6,08.9,0001.2,0012.73,0007.96,0007.62
2022-09-12 18:51:00,,0828.3,4.98,0.00,29.8,28.5,00.0,38.5,31.7,09.2,0001.9,0012.79,0007.98,0007.63
2022-09-12 18:52:00,,0828.3,5.01,0.00,29.9,28.6,00.0,38.5,31.7,09.6,0001.7,0012.72,0008.00,0007.65
2022-09-12 18:53:00,,0828.3,5.01,0.00,29.9,28.7,00.0,38.5,31.8,08.4,0002.3,0012.83,0007.99,0007.67
2022-09-12 18:54:00,,0828.3,4.99,0.00,29.9,27.7,00.0,38.5,31.8,08.4,0002.4,0012.23,0008.04,0007.72
2022-09-12 18:55:00,,0828.3,5.00,0.00,29.9,26.6,00.0,38.5,31.6,07.8,0002.3,0012.30,0008.12,0007.79
2022-09-12 18:56:00,,0828.2,5.01,0.00,29.8,26.7,00.0,38.4,31.6,08.6,0001.5,0012.04,0008.21,0007.85
2022-09-12 18:57:00,,0828.2,5.00,0.00,29.8,27.0,00.0,38.4,31.5,08.5,0001.1,0011.85,0008.30,0007.93
2022-09-12 18:58:00,,0828.2,4.99,0.00,29.7,27.3,00.0,38.4,31.4,08.5,0001.7,0011.99,0008.32,0007.96
2022-09-12 18:59:00,,0828.2,5.00,0.00,29.7,27.6,00.0,38.4,31.4,08.3,0002.7,0012.54,0008.39,0008.02
